Orbital Elements at Epoch 2459200.5 (2020-Dec-17.0) TDB
Reference: JPL 30 (heliocentric ecliptic J2000)
Element | Value | Uncertainty (1-sigma) | Units |
e | .09149358309638141 | 3.2966e-08 | |
a | 2.276031582674655 | 8.5454e-09 | au |
q | 2.067789297935223 | 7.7415e-08 | au |
i | 6.506900801238816 | 4.4425e-06 | deg |
node | 42.91184652186081 | 3.507e-05 | deg |
peri | 48.16482595646146 | 4.4557e-05 | deg |
M | 52.65540302205044 | 2.8223e-05 | deg |
tp | 2459017.054824956016 (2020-Jun-16.55482496) | 9.7997e-05 | TDB |
period | 1254.197275599214 3.43 | 7.0634e-06 1.934e-08 | d yr |
n | .287036184022967 | 1.6165e-09 | deg/d |
Q | 2.484273867414087 | 9.3273e-09 | au |
|
| | Orbit Determination Parameters
Additional Information
|